Weather reports worldwide

Advertisment
Holbeach, United Kingdom (3469): temperature & dewpoint: 21.06.2017 06:00:00 - 27.06.2017 06:00:00 (BST)Holbeach, United Kingdom (3469): temperature 5cm: 21.06.2017 06:00:00 - 27.06.2017 06:00:00 (BST)Holbeach, United Kingdom (3469): temperature -20cm & temperature -100cm: 21.06.2017 06:00:00 - 27.06.2017 06:00:00 (BST)Holbeach, United Kingdom (3469): wind speed & gusts: 21.06.2017 06:00:00 - 27.06.2017 06:00:00 (BST)Holbeach, United Kingdom (3469): wind direction: 21.06.2017 06:00:00 - 27.06.2017 06:00:00 (BST)Holbeach, United Kingdom (3469): reduced air pressure: 21.06.2017 06:00:00 - 27.06.2017 06:00:00 (BST)Holbeach, United Kingdom (3469): visibility: 21.06.2017 06:00:00 - 27.06.2017 06:00:00 (BST)Holbeach, United Kingdom (3469): precipitation: 21.06.2017 06:00:00 - 27.06.2017 06:00:00 (BST)
Date & Time tt [°C] td [°C] tt 5cm [°C] tt -20cm [°C] tt -100cm [°C] ff [km/h] ff [kn] fx [km/h] fx [kn] dd ppp [hPa] vv [km] rr [mm]
27.06.2017 06:00:00 12,9 10,8 - - - 16 9 - - ESE 1011,0 45 0,0
27.06.2017 05:00:00 12,9 10,3 - - - 15 8 - - ESE 1011,5 50 0,0
27.06.2017 04:00:00 13,0 10,1 - - - 13 7 - - ESE 1012,0 45 0,0
27.06.2017 03:00:00 13,1 10,0 - - - 11 6 - - SE 1012,6 50 0,0
27.06.2017 02:00:00 13,0 9,3 - - - 11 6 - - SE 1012,9 50 0,0
27.06.2017 01:00:00 13,3 9,0 - - - 11 6 - - SE 1013,4 50 0,0
27.06.2017 00:00:00 13,9 8,9 - - - 15 8 - - SE 1013,8 50 0,0
26.06.2017 23:00:00 14,7 9,3 - - - 18 10 - - ESE 1014,0 30 0,0
26.06.2017 22:00:00 15,2 8,4 - - - 21 11 - - ESE 1014,0 50 0,0
26.06.2017 21:00:00 15,4 7,0 - - - 21 11 - - E 1013,9 50 0,0
26.06.2017 20:00:00 15,7 8,9 - - - 26 14 - - E 1014,1 50 0,0
26.06.2017 19:00:00 16,0 9,2 - - - 31 17 - - ENE 1014,0 50 0,0
26.06.2017 18:00:00 16,7 10,3 - - - 26 14 - - ENE 1014,0 40 0,0
26.06.2017 17:00:00 18,1 10,3 - - - 21 11 - - ENE 1014,3 50 0,0
26.06.2017 16:00:00 19,1 8,2 - - - 11 6 - - E 1014,5 35 0,0
26.06.2017 15:00:00 18,6 6,1 - - - 9 5 - - NE 1014,6 50 0,0
26.06.2017 14:00:00 19,2 7,9 - - - 11 6 - - NE 1014,7 45 0,0
26.06.2017 13:00:00 18,1 5,7 - - - 13 7 - - WNW 1015,0 45 0,0
26.06.2017 12:00:00 18,6 6,4 - - - 15 8 - - NNW 1015,1 50 0,0
26.06.2017 11:00:00 17,1 6,6 - - - 9 5 - - WNW 1015,0 40 0,0
26.06.2017 10:00:00 15,8 7,8 - 17,7 15,9 9 5 - - NNW 1015,1 40 0,0
26.06.2017 09:00:00 14,8 8,7 - - - 9 5 - - NNW 1015,1 50 0,0
26.06.2017 08:00:00 13,8 8,2 - - - 16 9 - - NW 1015,1 50 0,0
26.06.2017 07:00:00 12,4 9,3 - - - 5 3 - - W 1014,7 45 0,0
26.06.2017 06:00:00 10,1 8,2 - - - 8 4 - - WNW 1014,4 50 0,0
26.06.2017 05:00:00 8,8 7,2 - - - 11 6 - - W 1014,0 50 0,0
26.06.2017 04:00:00 9,7 7,4 - - - 11 6 - - WNW 1013,8 45 0,0
26.06.2017 03:00:00 10,3 7,6 - - - 13 7 - - WNW 1014,0 50 0,0
26.06.2017 02:00:00 10,5 7,2 - - - 11 6 - - W 1013,9 35 0,0
26.06.2017 01:00:00 12,4 7,7 - - - 11 6 - - W 1013,6 50 0,0
26.06.2017 00:00:00 12,7 7,6 - - - 9 5 - - W 1013,2 50 0,0
25.06.2017 23:00:00 13,4 7,5 - - - 11 6 - - W 1012,7 50 0,0
25.06.2017 22:00:00 14,3 7,6 - - - 16 9 - - WNW 1012,5 50 0,0
25.06.2017 21:00:00 16,5 9,2 - - - 26 14 - - NW 1011,7 50 0,0
25.06.2017 20:00:00 17,5 11,7 - - - 16 9 - - WNW 1011,0 40 0,0
25.06.2017 19:00:00 17,8 12,0 - - - 24 13 - - NW 1010,5 50 0,0
25.06.2017 18:00:00 18,9 12,8 - - - 18 10 - - WNW 1009,8 50 0,0
25.06.2017 17:00:00 19,8 13,0 - - - 15 8 - - WNW 1009,5 45 0,0
25.06.2017 16:00:00 19,4 13,7 - - - 11 6 - - W 1009,6 50 0,0
25.06.2017 15:00:00 19,6 13,2 - - - 13 7 - - W 1009,7 30 0,0
25.06.2017 14:00:00 19,7 12,7 - - - 24 13 - - WSW 1009,9 45 0,0
25.06.2017 13:00:00 19,5 12,4 - - - 22 12 - - W 1010,2 50 0,0
25.06.2017 12:00:00 19,2 11,8 - - - 24 13 - - W 1010,4 45 0,0
25.06.2017 11:00:00 18,2 11,6 - - - 21 11 - - W 1010,4 50 0,0
25.06.2017 10:00:00 17,0 10,3 - 18,7 15,9 21 11 - - W 1010,5 50 0,0
25.06.2017 09:00:00 16,0 10,3 - - - 21 11 - - W 1010,5 50 0,0
25.06.2017 08:00:00 16,0 10,6 - - - 21 11 - - W 1010,1 40 0,0
25.06.2017 07:00:00 15,3 13,1 - - - 16 9 - - WSW 1009,9 40 0,0
25.06.2017 06:00:00 14,4 12,6 - - - 15 8 - - SW 1009,8 28 0,0
25.06.2017 05:00:00 14,7 12,7 - - - 21 11 - - SW 1009,6 50 0,0
25.06.2017 04:00:00 14,7 12,8 - - - 18 10 - - WSW 1009,5 35 0,0
25.06.2017 03:00:00 14,7 13,1 - - - 18 10 - - WSW 1009,7 40 0,0
25.06.2017 02:00:00 13,4 12,0 - - - 15 8 - - WSW 1009,8 30 0,0
25.06.2017 01:00:00 14,7 12,1 - - - 15 8 - - W 1009,9 50 0,0
25.06.2017 00:00:00 14,4 11,9 - - - 13 7 - - WSW 1010,1 50 0,0
24.06.2017 23:00:00 15,4 12,5 - - - 16 9 - - W 1010,2 50 0,0
24.06.2017 22:00:00 16,3 11,9 - - - 13 7 - - WSW 1010,1 50 0,0
24.06.2017 21:00:00 18,7 12,0 - - - 22 12 - - W 1009,8 50 0,0
24.06.2017 20:00:00 20,9 12,9 - - - 22 12 - - W 1009,5 50 0,0
24.06.2017 19:00:00 21,2 13,4 - - - 24 13 - - W 1009,5 50 0,0
24.06.2017 18:00:00 22,4 14,2 - - - 22 12 - - W 1009,5 45 0,0
24.06.2017 17:00:00 23,2 15,3 - - - 21 11 - - WSW 1010,0 45 0,0
24.06.2017 16:00:00 21,0 14,6 - - - 22 12 - - WSW 1010,6 50 0,0
24.06.2017 15:00:00 22,6 14,6 - - - 21 11 - - W 1010,9 50 0,0
24.06.2017 14:00:00 21,2 13,5 - - - 26 14 - - W 1011,4 45 0,0
24.06.2017 13:00:00 19,8 13,2 - - - 16 9 - - W 1011,9 50 0,0
24.06.2017 12:00:00 19,8 12,4 - - - 22 12 - - W 1012,0 50 0,0
24.06.2017 11:00:00 20,6 12,2 - - - 22 12 - - W 1011,8 30 0,0
24.06.2017 10:00:00 19,5 13,9 - 18,5 16,0 18 10 - - W 1011,8 45 0,0
24.06.2017 09:00:00 17,8 14,1 - - - 13 7 - - W 1012,1 45 0,0
24.06.2017 08:00:00 16,7 13,7 - - - 11 6 - - WNW 1012,2 50 0,0
24.06.2017 07:00:00 15,8 13,3 - - - 16 9 - - NW 1011,9 50 0,0
24.06.2017 06:00:00 17,3 14,5 - - - 22 12 - - WSW 1011,6 45 0,0
24.06.2017 05:00:00 16,6 14,2 - - - 24 13 - - SW 1011,4 50 0,0
24.06.2017 04:00:00 16,6 14,0 - - - 22 12 - - WSW 1011,7 50 0,0
24.06.2017 03:00:00 16,8 13,8 - - - 26 14 - - SW 1011,8 50 0,0
24.06.2017 02:00:00 16,8 13,8 - - - 29 16 - - SW 1012,1 50 0,0
24.06.2017 01:00:00 16,8 14,0 - - - 26 14 - - SW 1012,6 45 0,0
24.06.2017 00:00:00 17,3 14,0 - - - 22 12 - - WSW 1013,1 35 0,0
23.06.2017 23:00:00 17,9 13,7 - - - 26 14 - - WSW 1013,0 50 0,0
23.06.2017 22:00:00 18,1 13,7 - - - 24 13 - - SW 1013,3 45 0,0
23.06.2017 21:00:00 18,3 13,8 - - - 22 12 - - SW 1013,2 50 0,0
23.06.2017 20:00:00 18,7 14,0 - - - 24 13 - - WSW 1013,2 40 0,0
23.06.2017 19:00:00 19,3 14,5 - - - 29 16 46 25 WSW 1012,9 45 0,0
23.06.2017 18:00:00 19,4 14,1 - - - 34 18 46 25 WSW 1013,2 45 0,0
23.06.2017 17:00:00 19,6 14,5 - - - 28 15 - - WSW 1013,2 30 0,0
23.06.2017 16:00:00 20,4 14,5 - - - 29 16 - - WSW 1013,3 50 0,0
23.06.2017 15:00:00 20,2 14,2 - - - 34 18 52 28 WSW 1013,6 30 0,0
23.06.2017 14:00:00 22,0 16,7 - - - 37 20 52 28 WSW 1013,3 23 0,0
23.06.2017 13:00:00 18,6 15,6 - - - 22 12 - - SW 1013,5 50 0,0
23.06.2017 12:00:00 17,3 13,4 - - - 31 17 - - SW 1013,6 45 0,0
23.06.2017 11:00:00 15,1 13,8 - - - 21 11 - - SW 1013,5 12 0,4
23.06.2017 10:00:00 16,0 11,3 - 18,7 15,9 29 16 - - WSW 1013,6 45 0,0
23.06.2017 09:00:00 15,8 11,8 - - - 28 15 - - W 1013,4 10 0,0
23.06.2017 08:00:00 14,6 11,1 - - - 24 13 - - WSW 1013,1 40 0,0
23.06.2017 07:00:00 14,2 11,6 - - - 21 11 - - WSW 1013,1 45 0,0
23.06.2017 06:00:00 13,6 11,9 - - - 22 12 - - SW 1012,6 25 0,0
23.06.2017 05:00:00 13,5 11,6 - - - 16 9 - - SW 1012,9 35 0,0
23.06.2017 04:00:00 13,3 11,6 - - - 13 7 - - WSW 1013,2 50 0,0
23.06.2017 03:00:00 12,9 11,3 - - - 13 7 - - WSW 1013,2 23 0,0
23.06.2017 02:00:00 13,5 12,7 - - - 13 7 - - WSW 1013,2 18 0,0
23.06.2017 01:00:00 12,1 10,5 - - - 11 6 - - SW 1012,9 12 0,0
23.06.2017 00:00:00 13,5 11,4 - - - 8 4 - - WSW 1013,0 27 0,0
22.06.2017 23:00:00 14,5 11,4 - - - 15 8 - - NW 1012,9 50 0,0
22.06.2017 22:00:00 15,6 12,3 - - - 13 7 - - W 1013,0 45 0,0
22.06.2017 21:00:00 17,6 12,3 - - - 18 10 - - WNW 1012,1 45 0,0
22.06.2017 20:00:00 19,8 12,3 - - - 24 13 - - W 1011,7 50 0,0
22.06.2017 19:00:00 20,9 12,9 - - - 21 11 - - WNW 1011,1 35 0,0
22.06.2017 18:00:00 19,9 14,4 - - - 16 9 - - WNW 1010,8 40 0,0
22.06.2017 17:00:00 19,7 14,0 - - - 24 13 - - WNW 1010,4 45 0,0
22.06.2017 16:00:00 19,0 13,8 - - - 34 18 - - NW 1010,3 35 0,0
22.06.2017 15:00:00 18,6 15,0 - - - 22 12 - - W 1010,0 30 0,0
22.06.2017 14:00:00 19,0 14,6 - - - 24 13 - - WSW 1009,7 24 0,0
22.06.2017 13:00:00 19,7 14,8 - - - 26 14 - - WSW 1009,1 35 0,0
22.06.2017 12:00:00 19,7 15,1 - - - 28 15 - - WSW 1009,0 17 0,0
22.06.2017 11:00:00 19,5 15,6 - - - 22 12 - - W 1008,9 16 0,0
22.06.2017 10:00:00 19,5 16,1 - 20,4 15,7 24 13 - - W 1009,2 10 0,0
22.06.2017 09:00:00 20,7 16,5 - - - 26 14 - - W 1008,4 15 0,0
22.06.2017 08:00:00 20,7 17,9 - - - 22 12 - - WSW 1008,8 11 0,0
22.06.2017 07:00:00 20,7 18,9 - - - 21 11 - - WSW 1008,4 10 0,0
22.06.2017 06:00:00 19,6 18,7 - - - 16 9 - - SW 1008,1 6 0,0
22.06.2017 05:00:00 18,9 18,0 - - - 18 10 - - SSW 1007,7 3,9 0,0
22.06.2017 04:00:00 19,2 18,0 - - - 16 9 - - SSW 1008,1 5 0,0
22.06.2017 03:00:00 19,5 17,8 - - - 16 9 - - SSW 1008,5 6 0,0
22.06.2017 02:00:00 19,8 17,1 - - - 16 9 - - S 1009,3 7 0,0
22.06.2017 01:00:00 20,9 17,1 - - - 15 8 - - S 1009,8 10 0,0
22.06.2017 00:00:00 21,8 17,1 - - - 18 10 - - S 1010,3 14 0,0
21.06.2017 23:00:00 22,2 17,7 - - - 13 7 - - S 1010,4 15 0,0
21.06.2017 22:00:00 22,3 17,9 - - - 11 6 - - S 1010,8 27 0,0
21.06.2017 21:00:00 23,5 18,1 - - - 15 8 - - SSE 1010,8 26 0,0
21.06.2017 20:00:00 24,8 18,8 - - - 22 12 - - SSE 1010,8 35 0,0
21.06.2017 19:00:00 24,7 19,0 - - - 15 8 - - ESE 1011,7 23 0,0
21.06.2017 18:00:00 22,6 18,1 - - - 13 7 - - N 1013,0 21 0,0
21.06.2017 17:00:00 24,3 18,2 - - - 9 5 - - ENE 1012,7 29 0,0
21.06.2017 16:00:00 24,8 18,0 - - - 22 12 - - ENE 1013,0 21 0,0
21.06.2017 15:00:00 25,4 18,3 - - - 21 11 - - NNE 1014,4 25 0,0
21.06.2017 14:00:00 25,5 18,4 - - - 15 8 - - ENE 1014,9 23 0,0
21.06.2017 13:00:00 25,4 18,1 - - - 11 6 - - SE 1015,6 27 0,0
21.06.2017 12:00:00 22,9 16,9 - - - 11 6 - - SSE 1016,0 30 0,0
21.06.2017 11:00:00 23,0 17,0 - - - 15 8 - - SE 1016,3 10 0,0
21.06.2017 10:00:00 20,4 15,2 20,4 19,4 15,7 11 6 - - E 1017,0 29 0,0
21.06.2017 09:00:00 18,7 14,0 - - - 15 8 - - E 1017,4 22 0,0
21.06.2017 08:00:00 17,4 13,5 - - - 13 7 - - ESE 1018,1 23 0,0
21.06.2017 07:00:00 16,0 13,1 - - - 15 8 - - ESE 1018,3 30 0,0
21.06.2017 06:00:00 14,8 12,7 - - - 15 8 - - ESE 1018,3 25 0,0

tt = temperature
td = dewpoint
tt 5cm = temperature 5cm
tt -20cm = temperature -20cm
tt -100cm = temperature -100cm
ff = wind speed
fx = gusts
dd = wind direction
ppp = reduced air pressure
vv = visibility
rr = precipitation

Next stations